KI8L Weather Reports


time (UTC)temp
C
wind
direction
speed
KPH
gust
KPH
rain 1hr
cm
rain 24hr
cm
rain mn
cm
humidity
%
barometer
mb
20260504001849 12 182 6.4 6.4 0.00 0.00 0.00 50 1014.7
20260504001346 12 184 9.7 11.3 0.00 0.00 0.00 51 1014.4
20260504000843 12 188 4.8 6.4 0.00 0.00 0.00 53 1014.7
20260504000340 12 177 8.0 11.3 0.00 0.00 0.00 51 1014.5
20260503235838 12 198 4.8 4.8 0.00 0.00 0.00 51 1014.7
20260503235335 13 201 6.4 6.4 0.00 0.00 0.00 50 1014.5
20260503234832 13 218 6.4 9.7 0.00 0.00 0.00 49 1014.7
20260503234330 13 181 17.7 22.5 0.00 0.00 0.00 46 1014.7
20260503233828 13 185 9.7 14.5 0.00 0.00 0.00 47 1014.8
20260503233323 13 190 9.7 12.9 0.00 0.00 0.00 48 1014.9
20260503232820 13 190 4.8 4.8 0.00 0.00 0.00 49 1014.9
20260503232318 13 216 4.8 6.4 0.00 0.00 0.00 48 1015.0
20260503231815 13 200 16.1 20.9 0.00 0.00 0.00 48 1014.9
20260503231312 13 191 14.5 16.1 0.00 0.00 0.00 47 1014.9
20260503230808 13 205 16.1 17.7 0.00 0.00 0.00 46 1015.1
20260503230305 13 202 8.0 11.3 0.00 0.00 0.00 48 1014.9
20260503225803 13 210 9.7 12.9 0.00 0.00 0.00 47 1014.9
20260503225258 13 187 6.4 9.7 0.00 0.00 0.00 47 1015.0
20260503224755 13 182 12.9 12.9 0.00 0.00 0.00 44 1015.0
20260503224252 13 223 8.0 11.3 0.00 0.00 0.00 48 1015.0
20260503223750 14 178 11.3 14.5 0.00 0.00 0.00 47 1015.2
20260503223248 14 188 12.9 14.5 0.00 0.00 0.00 43 1015.1
20260503222743 14 219 12.9 14.5 0.00 0.00 0.00 46 1015.3
20260503222241 14 238 12.9 14.5 0.00 0.00 0.00 45 1015.2
20260503221740 14 220 8.0 9.7 0.00 0.00 0.00 45 1015.4
20260503221237 14 252 4.8 9.7 0.00 0.00 0.00 45 1015.2
20260503220733 14 213 6.4 9.7 0.00 0.00 0.00 44 1015.2
20260503220231 14 243 8.0 9.7 0.00 0.00 0.00 46 1015.1
20260503215727 15 216 8.0 11.3 0.00 0.00 0.00 46 1015.1
20260503215224 14 216 6.4 9.7 0.00 0.00 0.00 46 1015.3
20260503214723 14 248 8.0 9.7 0.00 0.00 0.00 45 1015.4
20260503214219 15 160 8.0 11.3 0.00 0.00 0.00 46 1015.4
20260503213717 15 253 6.4 6.4 0.00 0.00 0.00 45 1015.4
20260503213214 15 177 17.7 22.5 0.00 0.00 0.00 44 1015.3
20260503212711 14 10 6.4 6.4 0.00 0.00 0.00 46 1015.4
20260503212208 14 198 9.7 14.5 0.00 0.00 0.00 44 1015.5
20260503211706 15 163 14.5 22.5 0.00 0.00 0.00 43 1015.4
20260503211201 15 227 9.7 12.9 0.00 0.00 0.00 45 1015.3
20260503210658 15 250 9.7 14.5 0.00 0.00 0.00 45 1015.5
20260503210155 15 259 9.7 12.9 0.00 0.00 0.00 44 1015.5
20260503205650 15 196 17.7 20.9 0.00 0.00 0.00 45 1015.5
20260503205146 15 178 8.0 11.3 0.00 0.00 0.00 45 1015.5
20260503204643 15 235 8.0 11.3 0.00 0.00 0.00 43 1015.4
20260503204141 15 249 6.4 9.7 0.00 0.00 0.00 46 1015.5
20260503203638 15 236 9.7 12.9 0.00 0.00 0.00 44 1015.6
20260503203136 15 249 9.7 12.9 0.00 0.00 0.00 41 1015.7
20260503202633 15 236 9.7 11.3 0.00 0.00 0.00 42 1015.7
20260503202131 15 229 9.7 11.3 0.00 0.00 0.00 43 1015.7
20260503201628 15 187 9.7 12.9 0.00 0.00 0.00 50 1015.8
20260503201125 16 233 11.3 14.5 0.00 0.00 0.00 43 1015.8
20260503200621 15 198 9.7 12.9 0.00 0.00 0.00 43 1015.9
20260503200118 15 221 8.0 9.7 0.00 0.00 0.00 43 1016.0
20260503195615 14 220 9.7 12.9 0.00 0.00 0.00 47 1016.0
20260503195112 14 209 17.7 22.5 0.00 0.00 0.00 43 1016.1
20260503194610 15 197 9.7 12.9 0.00 0.00 0.00 44 1016.1
20260503194109 15 231 8.0 11.3 0.00 0.00 0.00 43 1016.3
20260503193607 15 188 16.1 22.5 0.00 0.00 0.00 44 1016.2
20260503193102 15 175 16.1 20.9 0.00 0.00 0.00 43 1016.4
20260503192558 15 207 4.8 6.4 0.00 0.00 0.00 44 1016.5
20260503192054 14 168 16.1 20.9 0.00 0.00 0.00 46 1016.6
20260503191551 15 187 9.7 16.1 0.00 0.00 0.00 46 1016.6
20260503191048 16 227 9.7 12.9 0.00 0.00 0.00 41 1016.9
20260503190545 15 164 6.4 9.7 0.00 0.00 0.00 47 1016.8
20260503190042 15 229 8.0 11.3 0.00 0.00 0.00 45 1016.8
20260503185538 15 225 14.5 20.9 0.00 0.00 0.00 45 1017.0
20260503185038 14 230 11.3 12.9 0.00 0.00 0.00 47 1017.0
20260503184534 14 203 20.9 29.0 0.00 0.00 0.00 48 1017.0
20260503184031 15 172 14.5 22.5 0.00 0.00 0.00 43 1017.0
20260503183528 15 208 4.8 4.8 0.00 0.00 0.00 48 1017.0
20260503183025 15 235 6.4 6.4 0.00 0.00 0.00 45 1017.0
20260503182523 15 261 6.4 6.4 0.00 0.00 0.00 42 1017.4
20260503182021 15 243 4.8 6.4 0.00 0.00 0.00 46 1017.5
20260503181518 15 223 11.3 14.5 0.00 0.00 0.00 48 1017.6
20260503181014 15 178 16.1 20.9 0.00 0.00 0.00 45 1017.6
20260503180511 15 217 6.4 9.7 0.00 0.00 0.00 43 1017.5
20260503180009 15 226 8.0 12.9 0.00 0.00 0.00 48 1017.6
20260503175506 14 247 4.8 4.8 0.00 0.00 0.00 48 1017.7
20260503175003 14 227 8.0 11.3 0.00 0.00 0.00 46 1017.7
20260503174500 15 247 4.8 6.4 0.00 0.00 0.00 44 1017.7
20260503173956 15 186 12.9 20.9 0.00 0.00 0.00 50 1017.9
20260503173451 15 222 4.8 6.4 0.00 0.00 0.00 44 1018.0
20260503172948 14 229 8.0 9.7 0.00 0.00 0.00 44 1018.0
20260503172446 13 230 9.7 14.5 0.00 0.00 0.00 48 1017.8
20260503171942 15 189 6.4 9.7 0.00 0.00 0.00 52 1017.9
20260503171439 14 249 9.7 12.9 0.00 0.00 0.00 50 1018.1
20260503170937 15 205 9.7 12.9 0.00 0.00 0.00 47 1018.2
20260503170432 15 218 6.4 9.7 0.00 0.00 0.00 49 1018.0
20260503150825 12 234 8.0 9.7 0.00 0.00 0.00 50 1018.9
20260503150321 12 219 8.0 11.3 0.00 0.00 0.00 50 1019.0
20260503140245 10 154 4.8 12.9 0.00 0.00 0.00 56 1019.4
20260503131215 7 201 3.2 4.8 0.00 0.00 0.00 68 1019.6
20260503130712 7 190 6.4 6.4 0.00 0.00 0.00 66 1019.7
20260503130210 7 182 9.7 11.3 0.00 0.00 0.00 68 1019.8
20260503120135 0 277 1.6 1.6 0.00 0.00 0.00 99 1019.5
20260503110603 -2 288 0.0 0.0 0.00 0.00 0.00 99 1019.1
20260503090450 -1 288 0.0 0.0 0.00 0.00 0.00 99 1018.8
20260503081416 -1 288 0.0 0.0 0.00 0.00 0.00 99 1019.0
20260503080913 -1 288 0.0 0.0 0.00 0.00 0.00 99 1019.0
20260503080410 -1 288 0.0 0.0 0.00 0.00 0.00 99 1018.9
20260503072846 -1 288 0.0 0.0 0.00 0.00 0.00 99 1018.9
20260503072343 -1 288 0.0 0.0 0.00 0.00 0.00 99 1018.9
20260503071840 -1 288 0.0 0.0 0.00 0.00 0.00 99 1018.9
20260503071337 -1 288 0.0 0.0 0.00 0.00 0.00 99 1019.0
20260503070833 0 288 0.0 0.0 0.00 0.00 0.00 99 1018.8
20260503070331 0 288 0.0 0.0 0.00 0.00 0.00 99 1018.8
20260503060302 0 288 0.0 0.0 0.00 0.00 0.00 99 1018.9
20260503054749 0 288 0.0 0.0 0.00 0.00 0.00 99 1019.3
20260503054246 0 288 0.0 0.0 0.00 0.00 0.00 99 1019.2
20260503053744 0 288 0.0 0.0 0.00 0.00 0.00 99 1019.2
20260503053243 1 288 0.0 0.0 0.00 0.00 0.00 99 1019.1
20260503052738 1 288 0.0 0.0 0.00 0.00 0.00 99 1019.2
20260503052235 1 288 0.0 0.0 0.00 0.00 0.00 99 1019.0
20260503051730 1 288 0.0 0.0 0.00 0.00 0.00 99 1019.3
20260503051228 1 288 0.0 0.0 0.00 0.00 0.00 99 1019.2
20260503050724 1 288 0.0 0.0 0.00 0.00 0.00 98 1019.1
20260503050221 1 288 0.0 0.0 0.00 0.00 0.00 98 1019.1
20260503045719 2 288 0.0 0.0 0.00 0.00 0.00 98 1019.0
20260503045216 2 288 0.0 0.0 0.00 0.00 0.00 98 1019.3
20260503044712 2 288 0.0 0.0 0.00 0.00 0.00 98 1019.2
20260503044210 2 288 0.0 0.0 0.00 0.00 0.00 97 1019.2
20260503043706 3 288 0.0 0.0 0.00 0.00 0.00 97 1019.2
20260503043204 3 287 0.0 0.0 0.00 0.00 0.00 98 1019.2
20260503042659 3 287 1.6 1.6 0.00 0.00 0.00 97 1019.3
20260503042156 3 287 0.0 1.6 0.00 0.00 0.00 98 1019.2
20260503041652 3 287 1.6 1.6 0.00 0.00 0.00 98 1019.2
20260503041150 3 288 0.0 0.0 0.00 0.00 0.00 98 1019.3
20260503040648 3 287 0.0 0.0 0.00 0.00 0.00 98 1019.3
20260503040145 3 287 1.6 1.6 0.00 0.00 0.00 98 1019.3
20260503035641 3 288 0.0 0.0 0.00 0.00 0.00 98 1019.4
20260503035139 3 288 0.0 0.0 0.00 0.00 0.00 98 1019.3
20260503034636 3 287 0.0 0.0 0.00 0.00 0.00 98 1019.5
20260503034133 3 287 0.0 0.0 0.00 0.00 0.00 98 1019.2
20260503033630 3 287 0.0 0.0 0.00 0.00 0.00 98 1019.3
20260503033128 3 287 0.0 0.0 0.00 0.00 0.00 99 1019.4
20260503032626 3 287 0.0 0.0 0.00 0.00 0.00 98 1019.4
20260503032125 3 287 0.0 0.0 0.00 0.00 0.00 98 1019.4
20260503031622 3 287 0.0 0.0 0.00 0.00 0.00 97 1019.2
20260503031119 3 288 0.0 0.0 0.00 0.00 0.00 96 1019.3
20260503030615 3 288 0.0 0.0 0.00 0.00 0.00 96 1019.6
20260503030112 3 288 0.0 0.0 0.00 0.00 0.00 96 1019.5
20260503025608 3 288 0.0 0.0 0.00 0.00 0.00 96 1019.5
20260503025107 3 288 0.0 0.0 0.00 0.00 0.00 96 1019.5
20260503024603 3 288 0.0 0.0 0.00 0.00 0.00 96 1019.6
20260503024100 3 288 0.0 0.0 0.00 0.00 0.00 96 1019.6
20260503023556 3 288 0.0 0.0 0.00 0.00 0.00 96 1019.6
20260503023054 3 288 0.0 0.0 0.00 0.00 0.00 96 1019.7
20260503022550 3 287 0.0 0.0 0.00 0.00 0.00 97 1019.8
20260503022044 3 288 0.0 0.0 0.00 0.00 0.00 94 1019.6
20260503021542 3 288 0.0 0.0 0.00 0.00 0.00 94 1019.7
20260503021038 3 288 0.0 0.0 0.00 0.00 0.00 95 1019.8
20260503020536 3 288 0.0 0.0 0.00 0.00 0.00 96 1019.7
20260503020033 3 287 0.0 0.0 0.00 0.00 0.00 96 1019.6
20260503015529 3 288 0.0 0.0 0.00 0.00 0.00 96 1019.5
20260503015027 3 288 0.0 0.0 0.00 0.00 0.00 96 1019.4
20260503014522 3 287 0.0 0.0 0.00 0.00 0.00 94 1019.6
20260503014021 3 287 0.0 0.0 0.00 0.00 0.00 93 1019.3
20260503013517 3 288 0.0 0.0 0.00 0.00 0.00 93 1019.6
20260503013015 3 288 0.0 0.0 0.00 0.00 0.00 94 1019.4
20260503012513 3 288 0.0 0.0 0.00 0.00 0.00 91 1019.5
20260503012009 3 288 0.0 0.0 0.00 0.00 0.00 94 1019.5
20260503011506 3 288 0.0 0.0 0.00 0.00 0.00 93 1019.6
20260503011003 3 288 0.0 0.0 0.00 0.00 0.00 92 1019.5
20260503010459 3 288 0.0 0.0 0.00 0.00 0.00 91 1019.4
20260503005956 3 288 0.0 0.0 0.00 0.00 0.00 91 1019.4
20260503005453 4 288 0.0 0.0 0.00 0.00 0.00 91 1019.4
20260503004950 4 288 0.0 0.0 0.00 0.00 0.00 91 1019.4
20260503004447 4 288 0.0 0.0 0.00 0.00 0.00 88 1019.5
20260503003945 5 288 0.0 0.0 0.00 0.00 0.00 85 1019.3
20260503003441 5 288 0.0 0.0 0.00 0.00 0.00 87 1019.3
20260503002938 5 288 0.0 1.6 0.00 0.00 0.00 85 1019.3
20260503002435 5 288 0.0 0.0 0.00 0.00 0.00 78 1019.2